Radiation Dose at Monitoring Post of Fukushima Daini Nuclear Power Station
Date,Time,MP-1(microSv/h),MP-2(microSv/h),MP-3(microSv/h),MP-4(microSv/h),MP-5(microSv/h),MP-6(microSv/h),MP-7(microSv/h),Wind Direction,Wind Velocity(m/s),Rain
2019/06/20,00:00,0.186,0.168,0.282,0.265,0.266,0.141,0.089,northwest,4.4,No
2019/06/20,00:10,0.189,0.169,0.281,0.267,0.264,0.141,0.089,north-northwest,4.8,No
2019/06/20,00:20,0.188,0.168,0.283,0.265,0.266,0.141,0.088,north-northwest,5.1,No
2019/06/20,00:30,0.188,0.169,0.281,0.266,0.263,0.141,0.088,northwest,5.1,No
2019/06/20,00:40,0.189,0.168,0.283,0.264,0.267,0.140,0.088,northwest,5.9,No
2019/06/20,00:50,0.188,0.170,0.281,0.266,0.263,0.140,0.088,northwest,5.6,No
2019/06/20,01:00,0.189,0.169,0.283,0.264,0.266,0.141,0.088,northwest,3.4,No
2019/06/20,01:10,0.187,0.170,0.282,0.266,0.266,0.141,0.089,northwest,1.6,No
2019/06/20,01:20,0.188,0.168,0.283,0.264,0.264,0.141,0.088,northwest,3.0,No
2019/06/20,01:30,0.187,0.170,0.280,0.266,0.265,0.141,0.088,northwest,2.7,No
2019/06/20,01:40,0.188,0.169,0.283,0.265,0.265,0.141,0.089,west-northwest,1.9,No
2019/06/20,01:50,0.187,0.169,0.281,0.265,0.267,0.141,0.087,west,2.4,No
2019/06/20,02:00,0.189,0.168,0.283,0.266,0.264,0.141,0.089,northwest,2.3,No
2019/06/20,02:10,0.187,0.169,0.283,0.265,0.267,0.141,0.088,northwest,3.5,No
2019/06/20,02:20,0.188,0.168,0.283,0.266,0.264,0.142,0.089,north-northwest,5.0,No
2019/06/20,02:30,0.187,0.170,0.282,0.265,0.267,0.140,0.088,north-northwest,6.3,No
2019/06/20,02:40,0.188,0.168,0.284,0.266,0.263,0.142,0.088,north-northwest,5.5,No
2019/06/20,02:50,0.188,0.170,0.282,0.266,0.267,0.140,0.088,north,5.7,No
2019/06/20,03:00,0.187,0.168,0.283,0.267,0.265,0.141,0.088,north,6.2,No
2019/06/20,03:10,0.189,0.169,0.284,0.265,0.266,0.140,0.087,north,6.2,No
2019/06/20,03:20,0.187,0.168,0.282,0.267,0.265,0.142,0.088,north,6.2,No
2019/06/20,03:30,0.190,0.169,0.282,0.266,0.266,0.141,0.088,north,6.8,No
2019/06/20,03:40,0.187,0.170,0.283,0.266,0.265,0.141,0.088,north-northwest,6.7,No
2019/06/20,03:50,0.188,0.170,0.283,0.264,0.265,0.141,0.088,north-northwest,5.9,No
2019/06/20,04:00,0.187,0.168,0.284,0.266,0.266,0.141,0.088,north-northwest,5.7,No
2019/06/20,04:10,0.189,0.169,0.282,0.265,0.265,0.141,0.088,north-northwest,6.2,No
2019/06/20,04:20,0.187,0.169,0.282,0.268,0.267,0.140,0.088,north-northwest,6.2,No
2019/06/20,04:30,0.189,0.170,0.281,0.266,0.265,0.140,0.087,north-northwest,6.7,No
2019/06/20,04:40,0.186,0.167,0.282,0.267,0.266,0.140,0.088,northwest,6.6,No
2019/06/20,04:50,0.189,0.169,0.282,0.265,0.263,0.142,0.088,northwest,6.6,No
2019/06/20,05:00,0.188,0.168,0.284,0.267,0.265,0.141,0.088,northwest,7.0,No
2019/06/20,05:10,0.187,0.169,0.284,0.265,0.265,0.141,0.089,north-northwest,7.3,No
2019/06/20,05:20,0.188,0.168,0.285,0.267,0.266,0.140,0.088,northwest,7.6,No
2019/06/20,05:30,0.188,0.169,0.283,0.266,0.263,0.140,0.088,northwest,7.0,No
2019/06/20,05:40,0.188,0.169,0.284,0.266,0.266,0.141,0.089,northwest,6.7,No
2019/06/20,05:50,0.187,0.168,0.282,0.266,0.263,0.142,0.088,north-northwest,6.4,No
2019/06/20,06:00,0.187,0.169,0.283,0.265,0.266,0.141,0.088,north-northwest,6.5,No
2019/06/20,06:10,0.186,0.169,0.283,0.267,0.263,0.141,0.087,north-northwest,6.2,No
2019/06/20,06:20,0.188,0.168,0.281,0.266,0.264,0.141,0.087,north-northwest,5.1,No
2019/06/20,06:30,0.187,0.169,0.284,0.266,0.265,0.139,0.088,north-northwest,4.9,No
2019/06/20,06:40,0.188,0.169,0.281,0.265,0.263,0.141,0.088,north-northwest,4.6,No
2019/06/20,06:50,0.188,0.168,0.284,0.266,0.266,0.140,0.088,northwest,4.1,No
2019/06/20,07:00,0.187,0.169,0.281,0.264,0.264,0.140,0.087,north-northwest,3.6,No
2019/06/20,07:10,0.187,0.169,0.284,0.266,0.266,0.141,0.088,north-northwest,4.8,No
2019/06/20,07:20,0.187,0.169,0.282,0.265,0.266,0.140,0.088,north-northwest,4.5,No
2019/06/20,07:30,0.189,0.169,0.283,0.263,0.264,0.141,0.088,north-northwest,4.4,No
2019/06/20,07:40,0.187,0.168,0.283,0.266,0.265,0.142,0.087,north-northwest,4.4,No
2019/06/20,07:50,0.188,0.169,0.281,0.265,0.266,0.140,0.087,north-northwest,4.2,No
2019/06/20,08:00,0.187,0.169,0.284,0.264,0.264,0.142,0.088,north-northwest,5.2,No
2019/06/20,08:10,0.187,0.167,0.283,0.267,0.265,0.142,0.087,north-northwest,5.1,No
2019/06/20,08:20,0.189,0.170,0.279,0.265,0.267,0.141,0.087,north,5.1,No
2019/06/20,08:30,0.188,0.169,0.284,0.263,0.264,0.140,0.087,north-northwest,4.6,No
2019/06/20,08:40,0.188,0.169,0.282,0.264,0.263,0.141,0.086,north-northwest,3.8,No
2019/06/20,08:50,0.190,0.169,0.281,0.267,0.265,0.141,0.087,north-northwest,4.6,No
2019/06/20,09:00,0.189,0.170,0.285,0.266,0.265,0.141,0.089,north-northwest,3.5,No
2019/06/20,09:10,0.186,0.169,0.283,0.264,0.265,0.140,0.088,north,3.4,No
2019/06/20,09:20,0.189,0.169,0.280,0.267,0.264,0.142,0.088,north-northwest,3.5,No
2019/06/20,09:30,0.188,0.171,0.285,0.267,0.267,0.141,0.089,north-northwest,3.8,No
2019/06/20,09:40,0.188,0.170,0.283,0.263,0.268,0.140,0.088,north-northwest,4.8,No
2019/06/20,09:50,0.188,0.170,0.281,0.265,0.266,0.141,0.088,north-northwest,3.9,No
2019/06/20,10:00,0.188,0.169,0.284,0.268,0.265,0.141,0.088,north-northwest,3.6,No
2019/06/20,10:10,0.190,0.169,0.283,0.266,0.268,0.141,0.089,north,3.2,No
2019/06/20,10:20,0.189,0.170,0.282,0.266,0.266,0.141,0.088,north-northeast,2.7,No
2019/06/20,10:30,0.187,0.170,0.284,0.269,0.266,0.141,0.087,north-northeast,2.8,No
2019/06/20,10:40,0.189,0.170,0.283,0.268,0.264,0.141,0.088,north-northeast,3.8,No
2019/06/20,10:50,0.187,0.170,0.281,0.263,0.263,0.142,0.088,north-northeast,4.1,No
2019/06/20,11:00,0.188,0.172,0.281,0.264,0.264,0.141,0.088,north-northeast,5.1,No
2019/06/20,11:10,0.187,0.170,0.284,0.263,0.267,0.141,0.088,north-northeast,3.8,No
2019/06/20,11:20,0.189,0.169,0.284,0.265,0.268,0.141,0.088,northeast,4.8,No
2019/06/20,11:30,0.188,0.170,0.284,0.268,0.266,0.141,0.088,northeast,5.9,No
2019/06/20,11:40,0.186,0.170,0.282,0.269,0.265,0.142,0.088,northeast,5.9,No
2019/06/20,11:50,0.187,0.170,0.281,0.267,0.265,0.143,0.088,northeast,4.5,No
2019/06/20,12:00,0.190,0.168,0.281,0.265,0.263,0.141,0.088,northeast,5.2,No
2019/06/20,12:10,0.189,0.169,0.281,0.265,0.264,0.142,0.089,northeast,5.9,No
2019/06/20,12:20,0.187,0.171,0.285,0.266,0.270,0.141,0.088,north-northeast,5.1,No
2019/06/20,12:30,0.188,0.170,0.286,0.267,0.269,0.142,0.089,north-northeast,5.0,No
2019/06/20,12:40,0.188,0.169,0.284,0.265,0.267,0.142,0.088,north,4.5,No
2019/06/20,12:50,0.190,0.168,0.283,0.266,0.267,0.142,0.088,north-northeast,4.4,No
2019/06/20,13:00,0.189,0.169,0.282,0.265,0.264,0.141,0.088,north-northeast,4.5,No
2019/06/20,13:10,0.188,0.170,0.282,0.269,0.264,0.142,0.088,north,4.8,No
2019/06/20,13:20,0.187,0.171,0.282,0.268,0.264,0.141,0.088,north,4.3,No
2019/06/20,13:30,0.188,0.170,0.282,0.269,0.264,0.142,0.089,north,4.9,No
2019/06/20,13:40,0.191,0.169,0.282,0.268,0.264,0.143,0.089,north,5.1,No
2019/06/20,13:50,0.190,0.171,0.283,0.266,0.265,0.143,0.088,north-northeast,4.8,No
2019/06/20,14:00,0.186,0.171,0.282,0.267,0.270,0.143,0.088,north-northeast,4.0,No
2019/06/20,14:10,0.187,0.171,0.282,0.265,0.270,0.142,0.089,north-northeast,4.4,No
2019/06/20,14:20,0.190,0.169,0.284,0.266,0.268,0.143,0.088,north-northeast,4.9,No
2019/06/20,14:30,0.190,0.171,0.288,0.266,0.266,0.142,0.089,north-northeast,5.2,No
2019/06/20,14:40,0.189,0.171,0.287,0.270,0.266,0.143,0.089,north-northeast,5.5,No
2019/06/20,14:50,0.187,0.170,0.284,0.270,0.265,0.142,0.088,north-northeast,5.7,No
2019/06/20,15:00,0.189,0.169,0.282,0.266,0.264,0.141,0.088,north-northeast,5.5,No
2019/06/20,15:10,0.189,0.172,0.283,0.268,0.265,0.141,0.088,northeast,5.3,No
2019/06/20,15:20,0.189,0.172,0.283,0.271,0.266,0.143,0.087,north-northeast,4.2,No
2019/06/20,15:30,0.187,0.171,0.286,0.268,0.265,0.143,0.089,northeast,4.2,No
2019/06/20,15:40,0.189,0.169,0.288,0.267,0.264,0.143,0.089,north-northeast,5.2,No
2019/06/20,15:50,0.190,0.172,0.285,0.271,0.269,0.142,0.088,north-northeast,5.1,No
2019/06/20,16:00,0.189,0.171,0.284,0.269,0.270,0.142,0.088,north-northeast,3.9,No
2019/06/20,16:10,0.188,0.169,0.286,0.267,0.269,0.142,0.088,north-northeast,4.2,No
2019/06/20,16:20,0.190,0.171,0.286,0.270,0.267,0.143,0.087,north-northeast,3.8,No
2019/06/20,16:30,0.189,0.169,0.285,0.267,0.265,0.142,0.088,north-northeast,3.9,No
2019/06/20,16:40,0.189,0.171,0.287,0.267,0.270,0.143,0.089,north-northeast,3.8,No
2019/06/20,16:50,0.191,0.171,0.286,0.270,0.270,0.143,0.088,north-northeast,3.6,No
2019/06/20,17:00,0.189,0.170,0.285,0.266,0.267,0.142,0.089,north-northeast,4.0,No
2019/06/20,17:10,0.189,0.172,0.287,0.268,0.271,0.141,0.088,north-northeast,3.0,No
2019/06/20,17:20,0.190,0.170,0.285,0.269,0.269,0.143,0.088,north-northeast,2.6,No
2019/06/20,17:30,0.188,0.171,0.285,0.268,0.267,0.143,0.088,north-northwest,2.4,No
2019/06/20,17:40,0.191,0.170,0.285,0.271,0.270,0.143,0.088,north,2.4,No
2019/06/20,17:50,0.188,0.171,0.284,0.267,0.267,0.142,0.087,north,2.4,No
2019/06/20,18:00,0.190,0.171,0.288,0.270,0.268,0.142,0.088,north-northwest,2.3,No
2019/06/20,18:10,0.190,0.171,0.285,0.269,0.269,0.142,0.088,north-northwest,2.0,No
2019/06/20,18:20,0.190,0.171,0.286,0.269,0.265,0.143,0.088,north,1.8,No
2019/06/20,18:30,0.190,0.172,0.286,0.270,0.269,0.141,0.088,north,1.2,No
2019/06/20,18:40,0.188,0.171,0.285,0.268,0.266,0.143,0.088,north-northeast,1.4,No
2019/06/20,18:50,0.189,0.169,0.287,0.271,0.267,0.142,0.088,north,1.2,No
2019/06/20,19:00,0.188,0.172,0.284,0.267,0.269,0.142,0.088,north,1.4,No
2019/06/20,19:10,0.190,0.171,0.287,0.269,0.266,0.143,0.088,north-northwest,2.1,No
2019/06/20,19:20,0.188,0.171,0.284,0.269,0.270,0.143,0.089,north-northwest,1.9,No
2019/06/20,19:30,0.190,0.170,0.286,0.268,0.266,0.143,0.088,northwest,1.2,No
2019/06/20,19:40,0.189,0.171,0.286,0.270,0.268,0.142,0.088,north-northwest,0.9,No
2019/06/20,19:50,0.189,0.170,0.287,0.268,0.268,0.143,0.088,north-northwest,0.8,No
2019/06/20,20:00,0.189,0.172,0.287,0.269,0.267,0.143,0.088,north,1.0,No
2019/06/20,20:10,0.189,0.171,0.285,0.266,0.268,0.142,0.088,north,1.4,No
2019/06/20,20:20,0.189,0.170,0.287,0.271,0.267,0.143,0.088,northwest,1.0,No
2019/06/20,20:30,0.188,0.171,0.285,0.268,0.270,0.143,0.088,west,0.7,No
2019/06/20,20:40,0.189,0.170,0.286,0.269,0.266,0.143,0.088,-,CALM,No
2019/06/20,20:50,0.189,0.170,0.284,0.268,0.268,0.142,0.089,west-northwest,0.9,No
2019/06/20,21:00,0.190,0.170,0.287,0.267,0.268,0.143,0.088,west-southwest,1.4,No
2019/06/20,21:10,0.188,0.171,0.285,0.271,0.268,0.142,0.089,west-southwest,0.9,No
2019/06/20,21:20,0.189,0.171,0.288,0.268,0.269,0.143,0.088,-,CALM,No
2019/06/20,21:30,0.188,0.170,0.284,0.270,0.266,0.142,0.088,-,CALM,No
2019/06/20,21:40,0.189,0.170,0.288,0.268,0.269,0.142,0.088,-,CALM,No
2019/06/20,21:50,0.188,0.171,0.284,0.270,0.268,0.143,0.088,north-northeast,1.1,No
2019/06/20,22:00,0.187,0.171,0.286,0.270,0.269,0.141,0.088,north,1.9,No
2019/06/20,22:10,0.190,0.171,0.286,0.269,0.267,0.142,0.088,north,2.0,No
2019/06/20,22:20,0.188,0.170,0.285,0.270,0.267,0.143,0.089,north-northwest,1.5,No
2019/06/20,22:30,0.190,0.171,0.288,0.268,0.269,0.142,0.088,northwest,1.4,No
2019/06/20,22:40,0.189,0.170,0.284,0.269,0.266,0.143,0.088,north-northwest,1.1,No
2019/06/20,22:50,0.190,0.171,0.286,0.267,0.269,0.142,0.088,north-northeast,1.0,No
2019/06/20,23:00,0.189,0.170,0.285,0.269,0.266,0.143,0.089,north-northeast,1.2,No
2019/06/20,23:10,0.189,0.170,0.289,0.268,0.268,0.142,0.088,north-northeast,0.9,No
2019/06/20,23:20,0.190,0.171,0.285,0.270,0.268,0.142,0.089,north,1.1,No
2019/06/20,23:30,0.189,0.171,0.287,0.269,0.267,0.143,0.088,north-northwest,1.4,No
2019/06/20,23:40,0.191,0.170,0.284,0.268,0.269,0.142,0.088,north-northwest,1.2,No
2019/06/20,23:50,0.188,0.171,0.288,0.270,0.267,0.143,0.089,north,1.0,No
